Springfield, MO

1:14 PM CST on December 06, 2019 (GMT -0600)
Springfield-Branson Regional

Weather History for KSGF - October, 2019

Change the Weather History Date:

Friday, October 25, 2019

  Actual Average Record
Temperature  
Mean Temperature 47 °F 55 °F  
Max Temperature 50 °F 66 °F 85 °F (1939)
Min Temperature 44 °F 44 °F 28 °F (1968)
Degree Days  
Heating Degree Days 18 10  
Month to date heating degree days 205 183  
Since 1 July heating degree days 205 238  
Cooling Degree Days 0 0  
Month to date cooling degree days 37 27  
Year to date cooling degree days 1687 1386  
Moisture  
Dew Point 42 °F    
Average Humidity 84    
Maximum Humidity 93    
Minimum Humidity 74    
Precipitation  
Precipitation 0.15 in 0.12 in 2.90 in (1932)
Month to date precipitation 6.56 2.90  
Year to date precipitation 48.25 37.62  
Snow  
Snow 0.00 in - - ()
Month to date snowfall 0.0  
Since 1 July snowfall 0.0  
Since 1 September snowfall 0.0  
Snow Depth 0.00 in    
Sea Level Pressure  
Sea Level Pressure 30.21 in    
Wind  
Wind Speed 12 mph (NE)    
Max Wind Speed 16 mph    
Max Gust Speed 21 mph    
Visibility 8 miles    
Events Rain    
T = Trace of Precipitation, MM = Missing Value Source: NWS Daily Summary

Daily Weather History Graph

Daily Weather History Graph

Search for Another Location

Airport or City:

Astronomy

Oct. 25, 2019 Rise Set
Actual Time 7:30 AM CDT 6:23 PM CDT
Civil Twilight 7:04 AM CDT 6:50 PM CDT
Nautical Twilight 6:33 AM CDT 7:20 PM CDT
Astronomical Twilight 6:03 AM CDT 7:51 PM CDT
Moon 4:20 AM CDT (10/25) 5:21 PM CDT (10/25)
Length of Visible Light 11h 46m
Length of Day
10h 53m
Waning Crescent, 9% of the Moon is Illuminated
Oct 25
Waning Crescent
Oct 27
New
Nov 4
First Quarter
Nov 12
Full
Nov 19
Last Quarter

Hourly Weather History & Observations

Time (CDT) Temp. Windchill Dew Point Humidity Pressure Visibility Wind Dir Wind Speed Gust Speed Precip Events Conditions
12:52 AM 43.0 °F 37.2 °F 41.0 °F 93% 30.26 in 10.0 mi ENE 10.4 mph - 0.00 in   Overcast
1:52 AM 44.1 °F 39.0 °F 42.1 °F 93% 30.27 in 5.0 mi NE 9.2 mph - 0.01 in Rain Light Rain
3:52 AM 44.1 °F 38.6 °F 42.1 °F 93% 30.26 in 10.0 mi NE 10.4 mph - 0.00 in   Overcast
4:52 AM 44.1 °F 38.6 °F 42.1 °F 93% 30.27 in 10.0 mi ENE 10.4 mph - 0.01 in Rain Light Rain
5:52 AM 44.1 °F 38.6 °F 42.1 °F 93% 30.27 in 8.0 mi NE 10.4 mph - 0.01 in Rain Light Rain
6:52 AM 44.1 °F 38.6 °F 42.1 °F 93% 30.27 in 7.0 mi NE 10.4 mph - 0.03 in Rain Light Rain
8:52 AM 44.1 °F 37.7 °F 42.1 °F 93% 30.30 in 6.0 mi NE 12.7 mph - 0.02 in Rain Light Rain
9:52 AM 44.1 °F 37.7 °F 42.1 °F 93% 30.30 in 4.0 mi NNE 12.7 mph - 0.00 in Rain Light Rain
10:52 AM 44.1 °F 37.4 °F 42.1 °F 93% 30.30 in 4.0 mi NE 13.8 mph - 0.02 in Rain Light Rain
11:52 AM 45.0 °F 39.3 °F 43.0 °F 93% 30.27 in 5.0 mi NE 11.5 mph - 0.04 in   Overcast
12:52 PM 46.0 °F 40.2 °F 44.1 °F 93% 30.25 in 6.0 mi NNE 12.7 mph - N/A   Overcast
1:52 PM 48.0 °F - 44.1 °F 86% 30.20 in 9.0 mi NNE 13.8 mph - N/A   Overcast
2:19 PM 48.0 °F - 44.1 °F 86% 30.17 in 10.0 mi NE 13.8 mph - N/A   Mostly Cloudy
2:52 PM 48.9 °F - 43.0 °F 80% 30.18 in 10.0 mi NNE 13.8 mph - N/A   Scattered Clouds
3:52 PM 50.0 °F - 43.0 °F 77% 30.16 in 10.0 mi NNE 11.5 mph - N/A   Scattered Clouds
4:52 PM 50.0 °F - 43.0 °F 77% 30.15 in 10.0 mi NE 9.2 mph - N/A   Partly Cloudy
5:52 PM 48.9 °F - 42.1 °F 77% 30.15 in 10.0 mi NNE 11.5 mph - N/A   Clear
6:52 PM 48.0 °F - 42.1 °F 80% 30.15 in 10.0 mi NNE 10.4 mph - N/A   Overcast
7:52 PM 46.9 °F - 42.1 °F 83% 30.14 in 10.0 mi NNE 11.5 mph - N/A   Overcast
9:52 PM 46.0 °F 40.2 °F 41.0 °F 83% 30.12 in 10.0 mi NE 12.7 mph - N/A   Overcast
10:52 PM 46.0 °F 40.6 °F 39.9 °F 79% 30.10 in 10.0 mi NNE 11.5 mph - N/A   Overcast
11:52 PM 46.0 °F 41.0 °F 39.9 °F 79% 30.07 in 10.0 mi NE 10.4 mph - N/A   Overcast